| time (UTC) | temp F | wind direction | speed knots | gust knots | rain 1hr in | rain 24hr in | rain mn in | humidity % | barometer mb |
| 20260504173115 | 77 | 192 | 0.9 | 0.9 | 0.00 | 0.00 | 0.00 | 53 | 1012.0 |
| 20260504172611 | 77 | 286 | 0.9 | 0.9 | 0.00 | 0.00 | 0.00 | 53 | 1012.1 |
| 20260504172108 | 76 | 192 | 0.0 | 0.0 | 0.00 | 0.00 | 0.00 | 51 | 1012.0 |
| 20260504171604 | 76 | 173 | 0.9 | 0.9 | 0.00 | 0.00 | 0.00 | 53 | 1012.2 |
| 20260504171101 | 76 | 196 | 0.9 | 1.7 | 0.00 | 0.00 | 0.00 | 52 | 1012.2 |
| 20260504170557 | 76 | 217 | 0.9 | 1.7 | 0.00 | 0.00 | 0.00 | 53 | 1012.4 |
| 20260504150941 | 70 | 174 | 1.7 | 2.6 | 0.00 | 0.00 | 0.00 | 65 | 1013.6 |
| 20260504150437 | 70 | 178 | 0.9 | 1.7 | 0.00 | 0.00 | 0.00 | 66 | 1013.8 |
| 20260504140904 | 67 | 135 | 1.7 | 2.6 | 0.00 | 0.00 | 0.00 | 71 | 1014.2 |
| 20260504140400 | 67 | 176 | 1.7 | 1.7 | 0.00 | 0.00 | 0.00 | 71 | 1014.1 |
| 20260504130325 | 64 | 176 | 0.0 | 0.0 | 0.00 | 0.00 | 0.00 | 76 | 1014.1 |
| 20260504120248 | 63 | 208 | 0.0 | 0.9 | 0.00 | 0.00 | 0.00 | 75 | 1013.7 |
| 20260504110716 | 63 | 195 | 0.0 | 0.0 | 0.00 | 0.00 | 0.00 | 73 | 1013.5 |
| 20260504110212 | 63 | 174 | 0.0 | 0.0 | 0.00 | 0.00 | 0.00 | 72 | 1013.6 |
| 20260504100136 | 63 | 205 | 0.0 | 0.0 | 0.00 | 0.00 | 0.00 | 73 | 1014.0 |
| 20260504081529 | 63 | 189 | 0.0 | 0.0 | 0.00 | 0.00 | 0.00 | 68 | 1014.3 |
| 20260504081025 | 63 | 198 | 0.0 | 0.0 | 0.00 | 0.00 | 0.00 | 68 | 1014.4 |
| 20260504080522 | 64 | 172 | 0.0 | 0.0 | 0.00 | 0.00 | 0.00 | 68 | 1014.6 |
| 20260504050335 | 65 | 194 | 0.0 | 0.0 | 0.00 | 0.00 | 0.00 | 64 | 1016.3 |
| 20260504045832 | 65 | 181 | 0.0 | 0.0 | 0.00 | 0.00 | 0.00 | 64 | 1016.4 |
| 20260504045326 | 66 | 188 | 0.0 | 0.0 | 0.00 | 0.00 | 0.00 | 64 | 1016.4 |
| 20260504044824 | 66 | 180 | 0.0 | 0.0 | 0.00 | 0.00 | 0.00 | 63 | 1016.6 |
| 20260504044321 | 66 | 196 | 0.0 | 0.0 | 0.00 | 0.00 | 0.00 | 63 | 1016.6 |
| 20260504043818 | 66 | 192 | 0.0 | 0.0 | 0.00 | 0.00 | 0.00 | 63 | 1016.5 |
| 20260504043315 | 66 | 183 | 0.0 | 0.0 | 0.00 | 0.00 | 0.00 | 63 | 1016.6 |
| 20260504042813 | 66 | 188 | 0.0 | 0.0 | 0.00 | 0.00 | 0.00 | 62 | 1016.6 |
| 20260504042309 | 66 | 190 | 0.0 | 0.0 | 0.00 | 0.00 | 0.00 | 62 | 1016.5 |
| 20260504041805 | 66 | 186 | 0.0 | 0.0 | 0.00 | 0.00 | 0.00 | 62 | 1016.4 |
| 20260504041301 | 66 | 188 | 0.0 | 0.0 | 0.00 | 0.00 | 0.00 | 62 | 1016.6 |
| 20260504040758 | 66 | 179 | 0.0 | 0.0 | 0.00 | 0.00 | 0.00 | 62 | 1016.4 |
| 20260504040255 | 66 | 192 | 0.0 | 0.0 | 0.00 | 0.00 | 0.00 | 62 | 1016.6 |
| 20260504035751 | 66 | 184 | 0.0 | 0.0 | 0.00 | 0.00 | 0.00 | 61 | 1016.4 |
| 20260504035248 | 67 | 188 | 0.0 | 0.0 | 0.00 | 0.00 | 0.00 | 60 | 1016.5 |
| 20260504034746 | 67 | 183 | 0.0 | 0.0 | 0.00 | 0.00 | 0.00 | 60 | 1016.5 |
| 20260504034243 | 67 | 194 | 0.0 | 0.0 | 0.00 | 0.00 | 0.00 | 59 | 1016.5 |
| 20260504033740 | 67 | 198 | 0.0 | 0.0 | 0.00 | 0.00 | 0.00 | 58 | 1016.4 |
| 20260504033238 | 68 | 194 | 0.0 | 0.0 | 0.00 | 0.00 | 0.00 | 58 | 1016.6 |
| 20260504032735 | 68 | 194 | 0.0 | 0.0 | 0.00 | 0.00 | 0.00 | 57 | 1016.5 |
| 20260504032232 | 68 | 183 | 0.0 | 0.0 | 0.00 | 0.00 | 0.00 | 57 | 1016.3 |
| 20260504031728 | 68 | 184 | 0.0 | 0.0 | 0.00 | 0.00 | 0.00 | 56 | 1016.3 |
| 20260504031226 | 68 | 195 | 0.0 | 0.0 | 0.00 | 0.00 | 0.00 | 56 | 1016.1 |
| 20260504030721 | 69 | 197 | 0.0 | 0.0 | 0.00 | 0.00 | 0.00 | 55 | 1016.4 |
| 20260504030219 | 69 | 200 | 0.0 | 0.0 | 0.00 | 0.00 | 0.00 | 55 | 1016.1 |
| 20260504025715 | 69 | 194 | 0.0 | 0.0 | 0.00 | 0.00 | 0.00 | 54 | 1016.1 |
| 20260504025212 | 69 | 180 | 0.0 | 0.0 | 0.00 | 0.00 | 0.00 | 54 | 1016.4 |
| 20260504024709 | 69 | 194 | 0.0 | 0.0 | 0.00 | 0.00 | 0.00 | 54 | 1016.0 |
| 20260504024206 | 69 | 200 | 0.0 | 0.0 | 0.00 | 0.00 | 0.00 | 53 | 1016.1 |
| 20260504023703 | 70 | 196 | 0.0 | 0.0 | 0.00 | 0.00 | 0.00 | 53 | 1016.0 |
| 20260504023158 | 70 | 191 | 0.0 | 0.0 | 0.00 | 0.00 | 0.00 | 51 | 1016.0 |
| 20260504022655 | 70 | 201 | 0.0 | 0.0 | 0.00 | 0.00 | 0.00 | 50 | 1016.4 |
| 20260504022150 | 71 | 187 | 0.0 | 0.0 | 0.00 | 0.00 | 0.00 | 51 | 1016.4 |
| 20260504021649 | 71 | 187 | 0.0 | 0.0 | 0.00 | 0.00 | 0.00 | 50 | 1016.1 |
| 20260504021145 | 71 | 193 | 0.0 | 0.0 | 0.00 | 0.00 | 0.00 | 49 | 1016.1 |
| 20260504020642 | 72 | 187 | 0.0 | 0.0 | 0.00 | 0.00 | 0.00 | 49 | 1016.3 |
| 20260504020138 | 72 | 195 | 0.0 | 0.0 | 0.00 | 0.00 | 0.00 | 48 | 1016.0 |
| 20260504015635 | 72 | 199 | 0.0 | 0.0 | 0.00 | 0.00 | 0.00 | 49 | 1015.7 |
| 20260504015131 | 72 | 198 | 0.0 | 0.0 | 0.00 | 0.00 | 0.00 | 48 | 1016.0 |
| 20260504014627 | 72 | 193 | 0.0 | 0.0 | 0.00 | 0.00 | 0.00 | 48 | 1015.9 |
| 20260504014124 | 72 | 195 | 0.0 | 0.0 | 0.00 | 0.00 | 0.00 | 49 | 1015.8 |
| 20260504013622 | 73 | 199 | 0.0 | 0.0 | 0.00 | 0.00 | 0.00 | 48 | 1016.0 |
| 20260504013119 | 73 | 205 | 0.0 | 0.0 | 0.00 | 0.00 | 0.00 | 46 | 1015.9 |
| 20260504012616 | 73 | 192 | 0.0 | 0.0 | 0.00 | 0.00 | 0.00 | 47 | 1015.8 |
| 20260504012114 | 74 | 198 | 0.0 | 0.0 | 0.00 | 0.00 | 0.00 | 46 | 1015.8 |
| 20260504011611 | 74 | 192 | 0.0 | 0.0 | 0.00 | 0.00 | 0.00 | 45 | 1015.7 |
| 20260504011107 | 74 | 199 | 0.0 | 0.0 | 0.00 | 0.00 | 0.00 | 44 | 1015.8 |
| 20260504010603 | 75 | 201 | 0.0 | 0.0 | 0.00 | 0.00 | 0.00 | 44 | 1016.0 |
| 20260504010059 | 75 | 195 | 0.0 | 0.0 | 0.00 | 0.00 | 0.00 | 45 | 1015.8 |
| 20260504005555 | 75 | 194 | 0.0 | 0.0 | 0.00 | 0.00 | 0.00 | 44 | 1015.7 |
| 20260504005053 | 75 | 190 | 0.0 | 0.0 | 0.00 | 0.00 | 0.00 | 44 | 1015.6 |
| 20260504004551 | 75 | 190 | 0.0 | 0.0 | 0.00 | 0.00 | 0.00 | 43 | 1015.6 |
| 20260504004048 | 76 | 196 | 0.0 | 0.0 | 0.00 | 0.00 | 0.00 | 42 | 1015.7 |
| 20260504003543 | 76 | 201 | 0.0 | 0.0 | 0.00 | 0.00 | 0.00 | 40 | 1015.9 |
| 20260504003041 | 76 | 179 | 0.0 | 0.0 | 0.00 | 0.00 | 0.00 | 40 | 1015.7 |
| 20260504002537 | 76 | 225 | 0.0 | 0.0 | 0.00 | 0.00 | 0.00 | 42 | 1015.8 |
| 20260504002035 | 76 | 215 | 0.0 | 0.0 | 0.00 | 0.00 | 0.00 | 41 | 1015.8 |
| 20260504001533 | 77 | 218 | 0.0 | 0.0 | 0.00 | 0.00 | 0.00 | 41 | 1015.8 |
| 20260504001028 | 77 | 184 | 0.0 | 0.0 | 0.00 | 0.00 | 0.00 | 41 | 1015.8 |
| 20260504000526 | 77 | 195 | 0.0 | 0.0 | 0.00 | 0.00 | 0.00 | 40 | 1015.8 |
| 20260504000023 | 77 | 186 | 0.0 | 0.0 | 0.00 | 0.00 | 0.00 | 40 | 1016.0 |
| 20260503235521 | 78 | 160 | 0.0 | 0.0 | 0.00 | 0.00 | 0.00 | 40 | 1015.9 |
| 20260503235018 | 78 | 196 | 0.0 | 0.0 | 0.00 | 0.00 | 0.00 | 41 | 1016.0 |
| 20260503234516 | 78 | 186 | 0.0 | 0.0 | 0.00 | 0.00 | 0.00 | 39 | 1015.9 |
| 20260503234014 | 78 | 180 | 0.0 | 0.0 | 0.00 | 0.00 | 0.00 | 38 | 1016.1 |
| 20260503233510 | 78 | 190 | 0.0 | 0.0 | 0.00 | 0.00 | 0.00 | 39 | 1016.0 |
| 20260503233006 | 78 | 215 | 0.0 | 0.0 | 0.00 | 0.00 | 0.00 | 40 | 1016.1 |
| 20260503232503 | 78 | 224 | 0.0 | 0.0 | 0.00 | 0.00 | 0.00 | 39 | 1016.4 |
| 20260503232001 | 78 | 176 | 0.0 | 0.0 | 0.00 | 0.00 | 0.00 | 38 | 1016.0 |
| 20260503231458 | 79 | 198 | 0.0 | 0.0 | 0.00 | 0.00 | 0.00 | 39 | 1016.0 |
| 20260503230955 | 79 | 171 | 0.0 | 0.0 | 0.00 | 0.00 | 0.00 | 37 | 1016.1 |
| 20260503230451 | 79 | 190 | 0.0 | 0.0 | 0.00 | 0.00 | 0.00 | 38 | 1016.1 |
| 20260503225949 | 79 | 182 | 0.0 | 0.0 | 0.00 | 0.00 | 0.00 | 38 | 1016.1 |
| 20260503225445 | 80 | 178 | 0.0 | 0.0 | 0.00 | 0.00 | 0.00 | 39 | 1016.3 |
| 20260503224941 | 80 | 206 | 0.0 | 0.9 | 0.00 | 0.00 | 0.00 | 37 | 1016.4 |
| 20260503224438 | 80 | 207 | 0.0 | 0.0 | 0.00 | 0.00 | 0.00 | 38 | 1016.3 |
| 20260503223936 | 80 | 183 | 0.0 | 0.0 | 0.00 | 0.00 | 0.00 | 38 | 1016.3 |
| 20260503223434 | 80 | 188 | 0.0 | 0.0 | 0.00 | 0.00 | 0.00 | 36 | 1016.4 |
| 20260503222929 | 80 | 173 | 0.9 | 0.9 | 0.00 | 0.00 | 0.00 | 38 | 1016.5 |
| 20260503222428 | 80 | 189 | 0.0 | 0.0 | 0.00 | 0.00 | 0.00 | 39 | 1016.4 |
| 20260503221926 | 80 | 202 | 0.0 | 0.0 | 0.00 | 0.00 | 0.00 | 40 | 1016.6 |
| 20260503221424 | 80 | 185 | 0.9 | 0.9 | 0.00 | 0.00 | 0.00 | 37 | 1016.6 |
| 20260503220920 | 80 | 218 | 0.0 | 0.9 | 0.00 | 0.00 | 0.00 | 37 | 1016.8 |
| 20260503220416 | 80 | 173 | 0.9 | 1.7 | 0.00 | 0.00 | 0.00 | 36 | 1016.7 |
| 20260503215914 | 80 | 204 | 0.9 | 0.9 | 0.00 | 0.00 | 0.00 | 35 | 1016.7 |
| 20260503215410 | 80 | 235 | 0.0 | 0.0 | 0.00 | 0.00 | 0.00 | 40 | 1016.8 |
| 20260503214908 | 80 | 217 | 0.0 | 0.0 | 0.00 | 0.00 | 0.00 | 36 | 1016.7 |
| 20260503214405 | 80 | 243 | 0.0 | 0.0 | 0.00 | 0.00 | 0.00 | 37 | 1016.7 |
| 20260503213903 | 80 | 185 | 0.0 | 0.9 | 0.00 | 0.00 | 0.00 | 36 | 1017.0 |
| 20260503213401 | 81 | 230 | 0.0 | 0.9 | 0.00 | 0.00 | 0.00 | 38 | 1017.1 |
| 20260503212856 | 81 | 198 | 0.0 | 0.0 | 0.00 | 0.00 | 0.00 | 38 | 1017.2 |
| 20260503212355 | 81 | 172 | 0.0 | 0.0 | 0.00 | 0.00 | 0.00 | 35 | 1017.3 |
| 20260503211851 | 81 | 178 | 0.0 | 0.0 | 0.00 | 0.00 | 0.00 | 36 | 1017.2 |
| 20260503211348 | 81 | 191 | 0.0 | 0.0 | 0.00 | 0.00 | 0.00 | 36 | 1017.1 |
| 20260503210843 | 81 | 172 | 0.0 | 0.9 | 0.00 | 0.00 | 0.00 | 38 | 1017.5 |
| 20260503210341 | 81 | 166 | 0.9 | 0.9 | 0.00 | 0.00 | 0.00 | 36 | 1017.4 |
| 20260503205836 | 81 | 177 | 0.0 | 0.0 | 0.00 | 0.00 | 0.00 | 37 | 1017.7 |
| 20260503205333 | 80 | 200 | 0.0 | 0.0 | 0.00 | 0.00 | 0.00 | 37 | 1017.6 |
| 20260503204829 | 80 | 187 | 0.0 | 0.0 | 0.00 | 0.00 | 0.00 | 36 | 1017.8 |
| 20260503204327 | 80 | 208 | 0.0 | 0.0 | 0.00 | 0.00 | 0.00 | 36 | 1017.8 |
| 20260503203824 | 81 | 174 | 0.0 | 0.0 | 0.00 | 0.00 | 0.00 | 38 | 1017.9 |
| 20260503203321 | 81 | 196 | 0.0 | 0.0 | 0.00 | 0.00 | 0.00 | 35 | 1018.0 |
| 20260503202818 | 80 | 186 | 0.0 | 0.0 | 0.00 | 0.00 | 0.00 | 36 | 1018.2 |
| 20260503202316 | 80 | 191 | 0.0 | 0.0 | 0.00 | 0.00 | 0.00 | 35 | 1018.3 |
| 20260503201814 | 80 | 179 | 0.0 | 0.9 | 0.00 | 0.00 | 0.00 | 36 | 1018.3 |
| 20260503201311 | 81 | 181 | 0.9 | 1.7 | 0.00 | 0.00 | 0.00 | 35 | 1018.4 |
| 20260503200808 | 81 | 201 | 0.9 | 1.7 | 0.00 | 0.00 | 0.00 | 33 | 1018.6 |
| 20260503200304 | 81 | 191 | 0.0 | 0.9 | 0.00 | 0.00 | 0.00 | 31 | 1018.5 |
| 20260503195802 | 81 | 186 | 0.0 | 0.0 | 0.00 | 0.00 | 0.00 | 34 | 1018.6 |
| 20260503195258 | 81 | 191 | 0.0 | 0.9 | 0.00 | 0.00 | 0.00 | 34 | 1018.7 |
| 20260503194755 | 80 | 197 | 0.0 | 0.0 | 0.00 | 0.00 | 0.00 | 34 | 1018.8 |
| 20260503194251 | 81 | 168 | 2.6 | 2.6 | 0.00 | 0.00 | 0.00 | 35 | 1018.8 |
| 20260503193747 | 81 | 239 | 0.0 | 0.0 | 0.00 | 0.00 | 0.00 | 38 | 1018.8 |
| 20260503193243 | 81 | 188 | 0.0 | 0.0 | 0.00 | 0.00 | 0.00 | 35 | 1019.1 |
| 20260503192739 | 81 | 284 | 0.0 | 0.0 | 0.00 | 0.00 | 0.00 | 37 | 1018.9 |
| 20260503192234 | 80 | 203 | 0.0 | 0.0 | 0.00 | 0.00 | 0.00 | 37 | 1019.1 |
| 20260503191731 | 80 | 188 | 0.0 | 0.0 | 0.00 | 0.00 | 0.00 | 40 | 1019.2 |
| 20260503191228 | 80 | 203 | 0.0 | 0.0 | 0.00 | 0.00 | 0.00 | 39 | 1019.2 |
| 20260503190725 | 80 | 176 | 0.0 | 0.0 | 0.00 | 0.00 | 0.00 | 40 | 1019.4 |
| 20260503190221 | 80 | 218 | 0.0 | 0.0 | 0.00 | 0.00 | 0.00 | 36 | 1019.5 |
| 20260503185719 | 80 | 189 | 0.0 | 0.0 | 0.00 | 0.00 | 0.00 | 39 | 1019.4 |
| 20260503185214 | 80 | 174 | 0.0 | 0.9 | 0.00 | 0.00 | 0.00 | 39 | 1019.5 |
| 20260503184709 | 80 | 209 | 0.0 | 0.0 | 0.00 | 0.00 | 0.00 | 42 | 1019.6 |
| 20260503184206 | 80 | 198 | 0.0 | 0.0 | 0.00 | 0.00 | 0.00 | 41 | 1019.6 |
| 20260503183702 | 79 | 191 | 0.9 | 0.9 | 0.00 | 0.00 | 0.00 | 37 | 1019.7 |
| 20260503183159 | 80 | 330 | 0.9 | 0.9 | 0.00 | 0.00 | 0.00 | 40 | 1019.7 |
| 20260503182657 | 80 | 186 | 0.0 | 0.0 | 0.00 | 0.00 | 0.00 | 41 | 1020.0 |
| 20260503182155 | 79 | 166 | 1.7 | 1.7 | 0.00 | 0.00 | 0.00 | 38 | 1020.0 |
| 20260503181652 | 79 | 226 | 0.0 | 0.9 | 0.00 | 0.00 | 0.00 | 43 | 1020.3 |
| 20260503181149 | 79 | 202 | 0.0 | 0.0 | 0.00 | 0.00 | 0.00 | 40 | 1020.2 |
| 20260503180646 | 79 | 175 | 0.0 | 0.0 | 0.00 | 0.00 | 0.00 | 43 | 1020.3 |
| 20260503180144 | 79 | 173 | 0.9 | 1.7 | 0.00 | 0.00 | 0.00 | 42 | 1020.3 |
| 20260503175640 | 79 | 209 | 0.0 | 0.0 | 0.00 | 0.00 | 0.00 | 42 | 1020.5 |
| 20260503175138 | 78 | 167 | 0.9 | 0.9 | 0.00 | 0.00 | 0.00 | 43 | 1020.6 |
| 20260503174634 | 78 | 192 | 0.0 | 0.0 | 0.00 | 0.00 | 0.00 | 43 | 1020.7 |
| 20260503174131 | 78 | 207 | 0.0 | 0.0 | 0.00 | 0.00 | 0.00 | 43 | 1020.7 |
| 20260503173626 | 78 | 166 | 0.9 | 1.7 | 0.00 | 0.00 | 0.00 | 43 | 1020.9 |